Location: ??
(35.1714°N, 128.2806°E)
Time: 05:57:23
(UTC+00:00)

Tiangong - Pass Details

Date: 24 June 2021
Orbit: 373 x 385 km, 41.5° (Epoch: 04 August)

Event Time Altitude Azimuth Distance (km) Brightness Sun altitude
Exits shadow 18:51:21 - 296° (WNW) 1,619 4.0 -14.4°
Reaches altitude 10° 18:52:00 10° 301° (WNW) 1,389 3.7 -14.3°
Maximum altitude 18:54:39 24° 359° (N) 830 3.2 -13.9°
Drops below altitude 10° 18:57:18 10° 56° (ENE) 1,397 5.3 -13.5°
Sets 18:59:37 0° 71° (ENE) 2,253 6.3 -13.2°
